This demonstration page uses our WeatherBlox Daily Observations layout. Learn more.

Left ArrowRight Arrow

34.16533, -84.80231

Hourly Observations for July 29, 2017

Temp ( °F °C ) Dew Point ( °F °C ) Humidity (%) Winds ( mph kmh ) Pressure ( in mb ) Visibility ( mi km ) Precip ( " mm )
12:53 am 00:53 Mostly Cloudy 76 24.4 75 23.9 97 97 SSW 3 6 29.77 1008 9 14 0.00 0.00
1:41 am 01:41 Cloudy 76 24.4 76 24.4 100 100 Calm 29.77 1008 9 14 0.00 0.00
1:53 am 01:53 Cloudy 76 24.4 76 24.4 100 100 Calm 29.77 1008 9 14 0.00 0.00
2:16 am 02:16 Cloudy 76 24.4 76 24.4 100 100 Calm 29.77 1008 9 14 0.00 0.00
2:51 am 02:51 Cloudy 75 24 75 24 100 100 VRB 3 6 29.77 1008 9 14 0.00 0.00
2:53 am 02:53 Cloudy 76 24.4 76 24.4 100 100 VRB 3 6 29.75 1008 9 14 0.00 0.00
3:33 am 03:33 Mostly Cloudy 76 24.4 76 24.4 100 100 Calm 29.74 1007 8 13 0.00 0.00
3:51 am 03:51 Mostly Cloudy 75 24 75 24 100 100 Calm 29.74 1007 8 13 0.00 0.00
3:53 am 03:53 Mostly Cloudy 76 24.4 76 24.4 100 100 Calm 29.74 1007 8 13 0.00 0.00
4:11 am 04:11 Cloudy 76 24.4 76 24.4 100 100 N 3 6 29.74 1007 8 13 0.00 0.00
4:28 am 04:28 Mostly Cloudy 76 24.4 76 24.4 100 100 VRB 3 6 29.74 1007 9 14 0.00 0.00
4:41 am 04:41 Mostly Cloudy 75 23.9 75 23.9 100 100 NNW 5 7 29.77 1008 9 14 0.00 0.00
4:53 am 04:53 Mostly Cloudy 75 23.9 73 22.8 94 94 VRB 3 6 29.75 1007 10 16 0.00 0.00
5:53 am 05:53 Cloudy 74 23.3 73 22.8 97 97 Calm 29.76 1008 10 16 0.00 0.00
6:53 am 06:53 Sunny 72 22.2 72 22.2 100 100 NNW 3 6 29.78 1008 8 13 0.00 0.00
7:53 am 07:53 Partly Cloudy 72 22.2 72 22.2 100 100 Calm 29.80 1009 7 11 0.00 0.00
8:06 am 08:06 Mostly Cloudy 73 22.8 72 22.2 96 96 Calm 29.80 1009 7 11 0.00 0.00
8:53 am 08:53 Cloudy 74 23.3 72 22.2 94 94 N 5 7 29.81 1010 8 13 0.00 0.00
9:53 am 09:53 Cloudy 76 24.4 72 22.2 88 88 NNE 5 7 29.82 1010 8 13 0.00 0.00
10:30 am 10:30 Cloudy 77 25 72 22.2 85 85 Calm 29.83 1010 8 13 0.00 0.00
10:53 am 10:53 Mostly Cloudy 79 26.1 72 22.2 79 79 VRB 6 9 29.82 1010 8 13 0.00 0.00
11:12 am 11:12 Partly Cloudy 81 27.2 72 22.2 74 74 VRB 7 11 29.83 1010 9 14 0.00 0.00
11:53 am 11:53 Mostly Sunny 83 28.3 71 21.7 67 67 N 13 20 29.82 1010 9 14 0.00 0.00
12:53 pm 12:53 Sunny 84 28.9 69 20.6 61 61 VRB 5 7 29.80 1009 10 16 0.00 0.00
1:53 pm 13:53 Sunny 87 30.6 65 18.3 48 48 N 12 19 29.80 1009 10 16 0.00 0.00
2:53 pm 14:53 Mostly Sunny 87 30.6 63 17.2 45 45 N 13 20 29.79 1009 10 16 0.00 0.00
3:53 pm 15:53 Mostly Sunny 85 29.4 63 17.2 48 48 N 10 17 29.79 1009 10 16 0.00 0.00
4:53 pm 16:53 Mostly Sunny 87 30.6 64 17.8 46 46 N 15 24 29.79 1009 10 16 0.00 0.00
5:53 pm 17:53 Mostly Sunny 86 30 57 13.9 37 37 N 15 24 29.79 1009 10 16 0.00 0.00
6:53 pm 18:53 Sunny 84 28.9 63 17.2 49 49 NNW 9 15 29.80 1009 10 16 0.00 0.00
7:53 pm 19:53 Sunny 80 26.7 64 17.8 58 58 VRB 7 11 29.82 1010 10 16 0.00 0.00
8:53 pm 20:53 Clear 77 25 66 18.9 69 69 NNW 3 6 29.84 1010 10 16 0.00 0.00
9:53 pm 21:53 Clear 76 24.4 65 18.3 69 69 N 8 13 29.85 1011 10 16 0.00 0.00
10:53 pm 22:53 Clear 73 22.8 66 18.9 79 79 Calm 29.87 1011 10 16 0.00 0.00
11:53 pm 23:53 Clear 73 22.8 64 17.8 74 74 N 3 6 29.87 1012 10 16 0.00 0.00

Powered by AerisWeather